sat.trackr.live / text

‹ back to catalog

ONEWEB-0571

NORAD 55150 · 2023-004L

PAYLOAD ACTIVE UNKNOWN

§ Identity

Operator
Country
UK
Launch date
2023-01-10
Launch site
AFETR
Launch vehicle
Mass (kg)
RCS (m²)

Purposes: comms

External: N2YO · Heavens-Above · Gunter

§ Orbital elements

Epoch: 2026-05-25T01:19:34.688640Z

Period
109.20 min
Inclination
87.9160°
Eccentricity
0.0000987
Mean motion
13.18687477 rev/d
Perigee alt
1,189.0 km
Apogee alt
1,190.5 km
Semi-major
7,567.9 km
B*
3.9338e-5
RAAN
340.0733°
Arg perigee
128.3501°
Mean anomaly
231.7720°
Rev number
16,665

§ Raw data

ONEWEB-05711 55150U 23004L   26145.05526260  .00000028  00000+0  39338-4 0  99982 55150  87.9160 340.0733 0000987 128.3501 231.7720 13.18687477166651

JSON: /api/v1/satellites/55150 · /tle

For live sub-satellite position, see the globe view (requires WebGL).

§ Visibility from observer

Set your observer location to see the next 7 days of passes ≥ 10°. The values pass through the URL so the page stays shareable.

No JS? Fill the form by hand. The geolocation button needs JavaScript.